Time,TemperatureF,DewpointF,PressureIn,WindDirection,WindDirectionDegrees,WindSpeedMPH,WindSpeedGustMPH,Humidity,HourlyPrecipIn,Conditions,Clouds,dailyrainin,SoftwareType,DateUTC
2013-11-07 00:01:00,42.8,35.1,29.91,NW,315,4.9,6.9,74,0.00,,,0.00,WUHU21623XXSP,2013-11-07 05:01:00,
2013-11-07 00:02:00,42.8,35.1,29.91,NNW,337,3.1,6.9,74,0.00,,,0.00,WUHU21623XXSP,2013-11-07 05:02:00,
2013-11-07 00:06:00,42.6,34.3,29.92,NW,314,3.8,6.9,72,0.00,,,0.00,WUHU21623XXSP,2013-11-07 05:06:00,
2013-11-07 00:11:00,42.6,34.3,29.91,NW,315,2.0,7.8,72,0.00,,,0.00,WUHU21623XXSP,2013-11-07 05:11:00,
2013-11-07 00:16:00,42.6,34.3,29.91,WSW,247,4.7,7.8,72,0.00,,,0.00,WUHU21623XXSP,2013-11-07 05:16:00,
2013-11-07 00:21:00,42.6,33.9,29.92,NW,315,4.7,6.7,71,0.00,,,0.00,WUHU21623XXSP,2013-11-07 05:21:00,
2013-11-07 00:26:00,42.4,33.8,29.92,NW,317,2.7,6.7,71,0.00,,,0.00,WUHU21623XXSP,2013-11-07 05:26:00,
2013-11-07 00:31:00,42.4,34.1,29.92,WNW,286,2.9,7.6,72,0.00,,,0.00,WUHU21623XXSP,2013-11-07 05:31:00,
2013-11-07 00:36:00,42.4,34.1,29.92,NW,321,1.3,7.8,72,0.00,,,0.00,WUHU21623XXSP,2013-11-07 05:36:00,
2013-11-07 00:40:00,42.4,34.1,29.92,West,270,2.7,2.7,72,0.00,,,0.00,WUHU21623XXSP,2013-11-07 05:40:00,
2013-11-07 00:41:00,42.4,33.8,29.92,NW,316,2.0,7.8,71,0.00,,,0.00,WUHU21623XXSP,2013-11-07 05:41:00,
2013-11-07 00:46:00,42.1,33.4,29.93,North,11,0.9,4.5,71,0.00,,,0.00,WUHU21623XXSP,2013-11-07 05:46:00,
2013-11-07 00:51:00,42.1,33.4,29.93,NNW,328,1.9,4.0,71,0.00,,,0.00,WUHU21623XXSP,2013-11-07 05:51:00,
2013-11-07 00:56:00,42.1,33.1,29.93,WNW,292,3.3,6.7,70,0.00,,,0.00,WUHU21623XXSP,2013-11-07 05:56:00,
2013-11-07 01:01:00,41.9,32.9,29.93,NNW,340,2.3,6.7,70,0.00,,,0.00,WUHU21623XXSP,2013-11-07 06:01:00,
2013-11-07 01:06:00,41.9,32.9,29.93,NW,315,5.1,6.3,70,0.00,,,0.00,WUHU21623XXSP,2013-11-07 06:06:00,
2013-11-07 01:11:00,41.7,32.7,29.93,SSW,202,0.9,6.9,70,0.00,,,0.00,WUHU21623XXSP,2013-11-07 06:11:00,
2013-11-07 01:16:00,41.5,32.5,29.93,North,0,3.4,6.9,70,0.00,,,0.00,WUHU21623XXSP,2013-11-07 06:16:00,
2013-11-07 01:21:00,41.5,32.1,29.93,North,0,2.7,7.6,69,0.00,,,0.00,WUHU21623XXSP,2013-11-07 06:21:00,
2013-11-07 01:26:00,41.5,32.1,29.93,NW,310,3.3,7.6,69,0.00,,,0.00,WUHU21623XXSP,2013-11-07 06:26:00,
2013-11-07 01:31:00,41.4,32.0,29.93,NW,322,2.5,7.2,69,0.00,,,0.00,WUHU21623XXSP,2013-11-07 06:31:00,
2013-11-07 01:36:00,41.4,32.0,29.93,WNW,292,3.1,6.5,69,0.00,,,0.00,WUHU21623XXSP,2013-11-07 06:36:00,
2013-11-07 01:40:00,41.2,31.9,29.93,NNW,338,3.4,3.4,69,0.00,,,0.00,WUHU21623XXSP,2013-11-07 06:40:00,
2013-11-07 01:41:00,41.2,31.4,29.94,NNW,337,4.7,6.5,68,0.00,,,0.00,WUHU21623XXSP,2013-11-07 06:41:00,
2013-11-07 01:46:00,41.0,31.6,29.94,NNW,328,2.8,6.3,69,0.00,,,0.00,WUHU21623XXSP,2013-11-07 06:46:00,
2013-11-07 01:51:00,40.8,31.8,29.94,NW,323,2.7,6.3,70,0.00,,,0.00,WUHU21623XXSP,2013-11-07 06:51:00,
2013-11-07 01:56:00,40.8,31.8,29.94,North,0,4.7,8.3,70,0.00,,,0.00,WUHU21623XXSP,2013-11-07 06:56:00,
2013-11-07 02:01:00,40.6,31.6,29.94,NW,315,3.1,8.3,70,0.00,,,0.00,WUHU21623XXSP,2013-11-07 07:01:00,
2013-11-07 02:06:00,40.5,31.5,29.94,North,5,1.5,8.1,70,0.00,,,0.00,WUHU21623XXSP,2013-11-07 07:06:00,
2013-11-07 02:11:00,40.3,31.3,29.94,WNW,292,6.0,6.3,70,0.00,,,0.00,WUHU21623XXSP,2013-11-07 07:11:00,
2013-11-07 02:16:00,40.1,30.7,29.94,NNW,329,4.8,8.9,69,0.00,,,0.00,WUHU21623XXSP,2013-11-07 07:16:00,
2013-11-07 02:21:00,39.9,30.5,29.94,NNW,337,3.6,8.9,69,0.00,,,0.00,WUHU21623XXSP,2013-11-07 07:21:00,
2013-11-07 02:26:00,39.9,30.5,29.94,WNW,291,2.3,6.9,69,0.00,,,0.00,WUHU21623XXSP,2013-11-07 07:26:00,
2013-11-07 02:31:00,39.7,30.4,29.95,North,352,2.7,6.5,69,0.00,,,0.00,WUHU21623XXSP,2013-11-07 07:31:00,
2013-11-07 02:36:00,39.7,30.4,29.95,NNW,329,3.0,6.0,69,0.00,,,0.00,WUHU21623XXSP,2013-11-07 07:36:00,
2013-11-07 02:40:00,39.6,30.3,29.95,North,0,2.0,2.0,69,0.00,,,0.00,WUHU21623XXSP,2013-11-07 07:40:00,
2013-11-07 02:41:00,39.6,29.8,29.95,North,353,2.8,6.0,69,0.00,,,0.00,WUHU21623XXSP,2013-11-07 07:41:00,
2013-11-07 02:46:00,39.4,29.6,29.95,NNE,22,2.2,5.4,68,0.00,,,0.00,WUHU21623XXSP,2013-11-07 07:46:00,
2013-11-07 02:51:00,39.4,29.6,29.95,North,0,4.3,7.4,68,0.00,,,0.00,WUHU21623XXSP,2013-11-07 07:51:00,
2013-11-07 02:56:00,39.0,29.3,29.95,NNW,344,2.8,7.4,68,0.00,,,0.00,WUHU21623XXSP,2013-11-07 07:56:00,
2013-11-07 03:01:00,39.0,29.7,29.95,North,350,2.2,5.1,69,0.00,,,0.00,WUHU21623XXSP,2013-11-07 08:01:00,
2013-11-07 03:06:00,39.0,29.7,29.96,North,0,6.5,6.5,68,0.00,,,0.00,WUHU21623XXSP,2013-11-07 08:06:00,
2013-11-07 03:11:00,39.0,29.3,29.96,WSW,247,3.6,7.2,68,0.00,,,0.00,WUHU21623XXSP,2013-11-07 08:11:00,
2013-11-07 03:16:00,39.0,29.3,29.96,North,0,4.3,7.2,68,0.00,,,0.00,WUHU21623XXSP,2013-11-07 08:16:00,
2013-11-07 03:21:00,38.8,29.1,29.97,NNW,334,2.9,5.1,68,0.00,,,0.00,WUHU21623XXSP,2013-11-07 08:21:00,
2013-11-07 03:26:00,38.8,28.7,29.96,NW,315,5.1,5.8,67,0.00,,,0.00,WUHU21623XXSP,2013-11-07 08:26:00,
2013-11-07 03:31:00,38.8,28.7,29.97,NW,315,3.6,9.4,67,0.00,,,0.00,WUHU21623XXSP,2013-11-07 08:31:00,
2013-11-07 03:36:00,38.8,28.7,29.97,NNW,333,3.5,9.4,67,0.00,,,0.00,WUHU21623XXSP,2013-11-07 08:36:00,
2013-11-07 03:40:00,38.8,28.9,29.96,NNW,338,1.3,1.3,67,0.00,,,0.00,WUHU21623XXSP,2013-11-07 08:40:00,
2013-11-07 03:41:00,38.8,28.7,29.96,NNE,22,3.4,9.4,67,0.00,,,0.00,WUHU21623XXSP,2013-11-07 08:41:00,
2013-11-07 03:46:00,38.8,28.7,29.96,North,0,3.8,9.4,67,0.00,,,0.00,WUHU21623XXSP,2013-11-07 08:46:00,
2013-11-07 03:51:00,38.8,28.7,29.96,North,359,2.7,7.2,67,0.00,,,0.00,WUHU21623XXSP,2013-11-07 08:51:00,
2013-11-07 03:56:00,38.8,28.7,29.96,NNW,335,3.2,6.0,67,0.00,,,0.00,WUHU21623XXSP,2013-11-07 08:56:00,
2013-11-07 04:01:00,38.8,28.7,29.96,NNW,347,3.8,6.0,67,0.00,,,0.00,WUHU21623XXSP,2013-11-07 09:01:00,
2013-11-07 04:06:00,38.8,29.1,29.96,NNW,347,3.3,6.5,68,0.00,,,0.00,WUHU21623XXSP,2013-11-07 09:06:00,
2013-11-07 04:11:00,38.8,28.7,29.97,NNW,330,4.5,9.2,67,0.00,,,0.00,WUHU21623XXSP,2013-11-07 09:11:00,
2013-11-07 04:16:00,38.8,28.7,29.96,WNW,292,4.7,9.2,67,0.00,,,0.00,WUHU21623XXSP,2013-11-07 09:16:00,
2013-11-07 04:21:00,38.8,28.7,29.96,NNW,343,2.3,6.0,67,0.00,,,0.00,WUHU21623XXSP,2013-11-07 09:21:00,
2013-11-07 04:26:00,38.8,28.7,29.97,North,350,2.5,6.9,67,0.00,,,0.00,WUHU21623XXSP,2013-11-07 09:26:00,
2013-11-07 04:31:00,38.8,29.1,29.97,NW,315,4.5,6.9,68,0.00,,,0.00,WUHU21623XXSP,2013-11-07 09:31:00,
2013-11-07 04:36:00,38.8,28.7,29.97,NNW,337,4.0,6.9,67,0.00,,,0.00,WUHU21623XXSP,2013-11-07 09:36:00,
2013-11-07 04:40:00,38.8,28.9,29.96,NNW,338,4.3,4.3,67,0.00,,,0.00,WUHU21623XXSP,2013-11-07 09:40:00,
2013-11-07 04:41:00,38.8,28.7,29.97,West,270,9.6,9.6,67,0.00,,,0.00,WUHU21623XXSP,2013-11-07 09:41:00,
2013-11-07 04:46:00,38.8,29.1,29.97,WNW,292,3.4,11.4,68,0.00,,,0.00,WUHU21623XXSP,2013-11-07 09:46:00,
2013-11-07 04:51:00,38.8,28.7,29.97,NW,317,3.3,11.4,67,0.00,,,0.00,WUHU21623XXSP,2013-11-07 09:51:00,
2013-11-07 04:56:00,38.8,29.1,29.97,NNW,337,5.1,8.3,68,0.00,,,0.00,WUHU21623XXSP,2013-11-07 09:56:00,
2013-11-07 05:01:00,38.8,28.7,29.97,NNW,341,5.4,7.6,67,0.00,,,0.00,WUHU21623XXSP,2013-11-07 10:01:00,
2013-11-07 05:06:00,38.8,29.1,29.97,West,270,5.4,7.6,68,0.00,,,0.00,WUHU21623XXSP,2013-11-07 10:06:00,
2013-11-07 05:11:00,38.8,29.1,29.97,NW,311,2.7,6.7,68,0.00,,,0.00,WUHU21623XXSP,2013-11-07 10:11:00,
2013-11-07 05:16:00,38.8,29.1,29.97,North,356,2.0,6.5,68,0.00,,,0.00,WUHU21623XXSP,2013-11-07 10:16:00,
2013-11-07 05:21:00,38.8,29.1,29.97,NW,315,3.4,6.3,68,0.00,,,0.00,WUHU21623XXSP,2013-11-07 10:21:00,
2013-11-07 05:26:00,38.8,29.1,29.97,NNW,337,3.8,8.1,68,0.00,,,0.00,WUHU21623XXSP,2013-11-07 10:26:00,
2013-11-07 05:31:00,38.8,29.1,29.97,NNW,332,3.0,8.1,68,0.00,,,0.00,WUHU21623XXSP,2013-11-07 10:31:00,
2013-11-07 05:36:00,38.5,29.2,29.98,NNW,336,3.3,7.6,69,0.00,,,0.00,WUHU21623XXSP,2013-11-07 10:36:00,
2013-11-07 05:40:00,38.5,29.3,29.98,WNW,293,1.3,1.3,69,0.00,,,0.00,WUHU21623XXSP,2013-11-07 10:40:00,
2013-11-07 05:41:00,38.5,29.2,29.97,NW,312,2.2,7.6,69,0.00,,,0.00,WUHU21623XXSP,2013-11-07 10:41:00,
2013-11-07 05:46:00,38.5,29.2,29.98,NNW,333,3.6,7.6,69,0.00,,,0.00,WUHU21623XXSP,2013-11-07 10:46:00,
2013-11-07 05:51:00,38.5,29.2,29.98,NNW,337,0.0,7.6,69,0.00,,,0.00,WUHU21623XXSP,2013-11-07 10:51:00,
2013-11-07 05:56:00,38.3,29.0,29.98,NW,306,3.7,6.3,69,0.00,,,0.00,WUHU21623XXSP,2013-11-07 10:56:00,
2013-11-07 06:01:00,38.3,29.0,29.98,NW,310,3.6,10.5,69,0.00,,,0.00,WUHU21623XXSP,2013-11-07 11:01:00,
2013-11-07 06:06:00,38.5,29.2,29.99,NW,315,5.8,10.5,69,0.00,,,0.00,WUHU21623XXSP,2013-11-07 11:06:00,
2013-11-07 06:11:00,38.5,29.2,29.99,NNW,336,2.1,6.9,69,0.00,,,0.00,WUHU21623XXSP,2013-11-07 11:11:00,
2013-11-07 06:16:00,38.5,29.2,29.99,NW,315,4.7,4.7,69,0.00,,,0.00,WUHU21623XXSP,2013-11-07 11:16:00,
2013-11-07 06:21:00,38.5,29.2,29.99,NW,315,3.1,6.5,69,0.00,,,0.00,WUHU21623XXSP,2013-11-07 11:21:00,
2013-11-07 06:26:00,38.5,29.2,29.99,NW,314,3.6,7.4,69,0.00,,,0.00,WUHU21623XXSP,2013-11-07 11:26:00,
2013-11-07 06:31:00,38.5,29.2,29.99,NW,313,4.3,9.6,69,0.00,,,0.00,WUHU21623XXSP,2013-11-07 11:31:00,
2013-11-07 06:34:00,38.5,29.2,29.99,NNW,337,2.7,9.6,69,0.00,,,0.00,WUHU21623XXSP,2013-11-07 11:34:00,
2013-11-07 06:39:00,38.5,29.2,29.99,WSW,247,4.9,9.6,69,0.00,,,0.00,WUHU21623XXSP,2013-11-07 11:39:00,
2013-11-07 06:40:00,38.5,29.3,29.99,NNW,338,0.0,0.0,69,0.00,,,0.00,WUHU21623XXSP,2013-11-07 11:40:00,
2013-11-07 06:44:00,38.5,28.8,29.99,NNW,343,3.8,7.6,68,0.00,,,0.00,WUHU21623XXSP,2013-11-07 11:44:00,
2013-11-07 06:49:00,38.8,29.5,30.00,NNW,333,2.1,7.6,69,0.00,,,0.00,WUHU21623XXSP,2013-11-07 11:49:00,
2013-11-07 06:54:00,38.8,29.5,30.00,NNW,337,3.1,5.8,69,0.00,,,0.00,WUHU21623XXSP,2013-11-07 11:54:00,
2013-11-07 06:59:00,38.8,29.5,30.00,NNW,328,3.8,6.5,69,0.00,,,0.00,WUHU21623XXSP,2013-11-07 11:59:00,
2013-11-07 07:04:00,38.8,29.5,30.00,NW,312,4.6,15.0,69,0.00,,,0.00,WUHU21623XXSP,2013-11-07 12:04:00,
2013-11-07 07:09:00,39.0,29.7,30.00,NW,326,4.2,15.0,69,0.00,,,0.00,WUHU21623XXSP,2013-11-07 12:09:00,
2013-11-07 07:14:00,39.0,29.7,30.00,NNW,347,2.4,9.4,69,0.00,,,0.00,WUHU21623XXSP,2013-11-07 12:14:00,
2013-11-07 07:19:00,39.0,30.0,30.00,NNW,337,6.0,9.4,70,0.00,,,0.00,WUHU21623XXSP,2013-11-07 12:19:00,
2013-11-07 07:24:00,39.0,30.0,30.00,WNW,299,1.9,9.4,70,0.00,,,0.00,WUHU21623XXSP,2013-11-07 12:24:00,
2013-11-07 07:29:00,39.0,30.0,30.00,WNW,303,2.6,7.2,70,0.00,,,0.00,WUHU21623XXSP,2013-11-07 12:29:00,
2013-11-07 07:34:00,39.0,30.0,30.00,West,276,1.8,8.3,70,0.00,,,0.00,WUHU21623XXSP,2013-11-07 12:34:00,
2013-11-07 07:39:00,39.0,30.4,30.00,NW,312,1.5,8.3,71,0.00,,,0.00,WUHU21623XXSP,2013-11-07 12:39:00,
2013-11-07 07:40:00,39.0,30.5,30.00,North,0,0.0,0.0,71,0.00,,,0.00,WUHU21623XXSP,2013-11-07 12:40:00,
2013-11-07 07:44:00,38.8,30.2,30.00,NW,324,2.3,3.8,71,0.00,,,0.00,WUHU21623XXSP,2013-11-07 12:44:00,
2013-11-07 07:49:00,38.8,30.2,30.00,NW,315,1.6,3.8,71,0.00,,,0.00,WUHU21623XXSP,2013-11-07 12:49:00,
2013-11-07 07:54:00,38.8,30.2,30.01,NW,309,1.4,3.1,71,0.00,,,0.00,WUHU21623XXSP,2013-11-07 12:54:00,
2013-11-07 07:59:00,38.7,30.0,30.01,NW,315,1.3,2.5,71,0.00,,,0.00,WUHU21623XXSP,2013-11-07 12:59:00,
2013-11-07 08:04:00,38.8,30.2,30.01,NW,323,2.8,4.3,71,0.00,,,0.00,WUHU21623XXSP,2013-11-07 13:04:00,
2013-11-07 08:09:00,38.8,30.2,30.01,WNW,290,2.2,5.1,71,0.00,,,0.00,WUHU21623XXSP,2013-11-07 13:09:00,
2013-11-07 08:14:00,38.8,30.2,30.01,NW,306,1.3,5.1,71,0.00,,,0.00,WUHU21623XXSP,2013-11-07 13:14:00,
2013-11-07 08:19:00,38.8,30.2,30.02,NNW,348,2.0,6.7,71,0.00,,,0.00,WUHU21623XXSP,2013-11-07 13:19:00,
2013-11-07 08:24:00,39.0,30.4,30.01,North,0,2.7,6.7,71,0.00,,,0.00,WUHU21623XXSP,2013-11-07 13:24:00,
2013-11-07 08:29:00,39.0,30.4,30.02,North,0,3.1,4.0,71,0.00,,,0.00,WUHU21623XXSP,2013-11-07 13:29:00,
2013-11-07 08:34:00,39.4,31.0,30.02,NNW,337,2.9,4.0,72,0.00,,,0.00,WUHU21623XXSP,2013-11-07 13:34:00,
2013-11-07 08:39:00,39.7,31.1,30.02,WNW,299,2.9,9.2,71,0.00,,,0.00,WUHU21623XXSP,2013-11-07 13:39:00,
2013-11-07 08:40:00,39.7,31.1,30.02,West,270,0.0,0.0,71,0.00,,,0.00,WUHU21623XXSP,2013-11-07 13:40:00,
2013-11-07 08:44:00,39.9,30.9,30.02,NW,315,3.6,9.2,70,0.00,,,0.00,WUHU21623XXSP,2013-11-07 13:44:00,
2013-11-07 08:49:00,40.1,31.4,30.02,NNW,337,2.5,5.1,71,0.00,,,0.00,WUHU21623XXSP,2013-11-07 13:49:00,
2013-11-07 08:54:00,40.3,31.3,30.02,NW,315,5.1,9.4,70,0.00,,,0.00,WUHU21623XXSP,2013-11-07 13:54:00,
2013-11-07 08:59:00,40.6,31.6,30.02,NNW,328,1.4,9.4,70,0.00,,,0.00,WUHU21623XXSP,2013-11-07 13:59:00,
2013-11-07 09:04:00,40.8,31.8,30.02,NW,308,1.5,9.2,70,0.00,,,0.00,WUHU21623XXSP,2013-11-07 14:04:00,
2013-11-07 09:09:00,40.8,31.8,30.02,NW,312,2.0,4.7,70,0.00,,,0.00,WUHU21623XXSP,2013-11-07 14:09:00,
2013-11-07 09:14:00,41.2,31.8,30.02,NW,319,2.5,4.9,69,0.00,,,0.00,WUHU21623XXSP,2013-11-07 14:14:00,
2013-11-07 09:19:00,41.5,31.8,30.02,NW,321,3.2,8.1,68,0.00,,,0.00,WUHU21623XXSP,2013-11-07 14:19:00,
2013-11-07 09:24:00,41.7,31.9,30.02,WNW,302,1.8,8.1,68,0.00,,,0.00,WUHU21623XXSP,2013-11-07 14:24:00,
2013-11-07 09:29:00,41.9,32.1,30.02,North,0,2.5,5.4,68,0.00,,,0.00,WUHU21623XXSP,2013-11-07 14:29:00,
2013-11-07 09:34:00,42.1,32.3,30.02,West,281,1.5,4.5,68,0.00,,,0.00,WUHU21623XXSP,2013-11-07 14:34:00,
2013-11-07 09:39:00,42.3,32.5,30.02,West,270,2.5,4.7,68,0.00,,,0.00,WUHU21623XXSP,2013-11-07 14:39:00,
2013-11-07 09:40:00,42.3,32.6,30.02,North,0,2.0,2.0,68,0.00,,,0.00,WUHU21623XXSP,2013-11-07 14:40:00,
2013-11-07 09:44:00,42.4,32.6,30.02,North,2,2.2,4.9,68,0.00,,,0.00,WUHU21623XXSP,2013-11-07 14:44:00,
2013-11-07 09:49:00,42.6,32.4,30.02,West,270,2.7,4.9,67,0.00,,,0.00,WUHU21623XXSP,2013-11-07 14:49:00,
2013-11-07 09:54:00,43.0,33.2,30.02,North,0,2.4,4.5,68,0.00,,,0.00,WUHU21623XXSP,2013-11-07 14:54:00,
2013-11-07 09:59:00,43.2,32.5,30.02,NNW,334,4.5,9.6,66,0.00,,,0.00,WUHU21623XXSP,2013-11-07 14:59:00,
2013-11-07 10:04:00,43.0,32.4,30.02,WNW,282,3.0,9.6,66,0.00,,,0.00,WUHU21623XXSP,2013-11-07 15:04:00,
2013-11-07 10:09:00,43.0,32.8,30.02,West,281,3.4,6.5,67,0.00,,,0.00,WUHU21623XXSP,2013-11-07 15:09:00,
2013-11-07 10:14:00,43.0,32.8,30.02,NW,318,3.4,6.7,67,0.00,,,0.00,WUHU21623XXSP,2013-11-07 15:14:00,
2013-11-07 10:19:00,43.0,32.8,30.03,WNW,302,3.6,7.8,67,0.00,,,0.00,WUHU21623XXSP,2013-11-07 15:19:00,
2013-11-07 10:24:00,43.0,32.8,30.03,WSW,247,4.9,8.9,67,0.00,,,0.00,WUHU21623XXSP,2013-11-07 15:24:00,
2013-11-07 10:29:00,43.0,32.8,30.02,NNW,331,3.8,8.9,67,0.00,,,0.00,WUHU21623XXSP,2013-11-07 15:29:00,
2013-11-07 10:34:00,43.0,32.8,30.02,WNW,294,3.3,8.7,67,0.00,,,0.00,WUHU21623XXSP,2013-11-07 15:34:00,
2013-11-07 10:39:00,42.8,33.0,30.03,West,270,4.7,5.6,68,0.00,,,0.00,WUHU21623XXSP,2013-11-07 15:39:00,
2013-11-07 10:40:00,42.6,32.9,30.03,West,270,3.8,3.8,68,0.00,,,0.00,WUHU21623XXSP,2013-11-07 15:40:00,
2013-11-07 10:44:00,42.6,32.8,30.03,NW,323,3.5,7.2,68,0.00,,,0.00,WUHU21623XXSP,2013-11-07 15:44:00,
2013-11-07 10:49:00,42.6,32.8,30.03,NW,323,2.6,7.2,68,0.00,,,0.00,WUHU21623XXSP,2013-11-07 15:49:00,
2013-11-07 10:54:00,43.2,33.3,30.03,NNW,335,3.0,6.5,68,0.00,,,0.00,WUHU21623XXSP,2013-11-07 15:54:00,
2013-11-07 10:59:00,43.3,33.5,30.03,NW,315,3.1,6.5,68,0.00,,,0.00,WUHU21623XXSP,2013-11-07 15:59:00,
2013-11-07 11:04:00,43.5,33.7,30.03,NW,315,4.5,11.2,68,0.00,,,0.00,WUHU21623XXSP,2013-11-07 16:04:00,
2013-11-07 11:09:00,43.9,33.2,30.04,NW,315,9.2,11.2,66,0.00,,,0.00,WUHU21623XXSP,2013-11-07 16:09:00,
2013-11-07 11:14:00,43.7,32.7,30.04,North,0,2.0,9.8,65,0.00,,,0.00,WUHU21623XXSP,2013-11-07 16:14:00,
2013-11-07 11:19:00,43.7,33.1,30.04,NW,305,2.1,7.6,66,0.00,,,0.00,WUHU21623XXSP,2013-11-07 16:19:00,
2013-11-07 11:24:00,43.9,33.2,30.04,WNW,292,4.0,8.1,66,0.00,,,0.00,WUHU21623XXSP,2013-11-07 16:24:00,
2013-11-07 11:29:00,44.1,33.0,30.04,NW,315,8.9,8.9,65,0.00,,,0.00,WUHU21623XXSP,2013-11-07 16:29:00,
2013-11-07 11:34:00,44.4,33.0,30.04,NW,323,4.2,10.1,64,0.00,,,0.00,WUHU21623XXSP,2013-11-07 16:34:00,
2013-11-07 11:39:00,44.6,33.2,30.03,SW,236,2.6,10.1,64,0.00,,,0.00,WUHU21623XXSP,2013-11-07 16:39:00,
2013-11-07 11:40:00,44.8,33.5,30.03,WNW,293,0.0,0.0,64,0.00,,,0.00,WUHU21623XXSP,2013-11-07 16:40:00,
2013-11-07 11:44:00,44.8,33.3,30.03,SSE,159,1.4,7.8,64,0.00,,,0.00,WUHU21623XXSP,2013-11-07 16:44:00,
2013-11-07 11:49:00,45.1,33.3,30.02,WSW,247,2.5,8.1,63,0.00,,,0.00,WUHU21623XXSP,2013-11-07 16:49:00,
2013-11-07 11:54:00,45.3,33.0,30.03,West,275,4.5,8.1,62,0.00,,,0.00,WUHU21623XXSP,2013-11-07 16:54:00,
2013-11-07 11:59:00,45.5,33.6,30.03,West,261,2.0,7.8,63,0.00,,,0.00,WUHU21623XXSP,2013-11-07 16:59:00,
2013-11-07 12:04:00,45.7,33.4,30.02,WSW,247,5.4,7.4,62,0.00,,,0.00,WUHU21623XXSP,2013-11-07 17:04:00,
2013-11-07 12:09:00,45.9,33.5,30.02,SW,234,4.1,8.7,62,0.00,,,0.00,WUHU21623XXSP,2013-11-07 17:09:00,
2013-11-07 12:14:00,45.9,33.2,30.02,WSW,244,3.1,8.7,61,0.00,,,0.00,WUHU21623XXSP,2013-11-07 17:14:00,
2013-11-07 12:19:00,45.7,33.0,30.02,NW,317,1.3,8.5,61,0.00,,,0.00,WUHU21623XXSP,2013-11-07 17:19:00,
2013-11-07 12:24:00,46.2,33.5,30.02,WNW,295,3.8,7.6,61,0.00,,,0.00,WUHU21623XXSP,2013-11-07 17:24:00,
2013-11-07 12:29:00,46.2,33.9,30.02,SW,228,3.7,7.8,62,0.00,,,0.00,WUHU21623XXSP,2013-11-07 17:29:00,
2013-11-07 12:34:00,46.6,33.8,30.02,West,270,4.9,7.8,61,0.00,,,0.00,WUHU21623XXSP,2013-11-07 17:34:00,
2013-11-07 12:39:00,46.6,33.0,30.02,West,279,4.6,10.1,59,0.00,,,0.00,WUHU21623XXSP,2013-11-07 17:39:00,
2013-11-07 12:40:00,46.6,33.1,30.02,WSW,248,2.2,2.2,59,0.00,,,0.00,WUHU21623XXSP,2013-11-07 17:40:00,
2013-11-07 12:44:00,46.4,33.3,30.02,SW,214,2.7,10.1,60,0.00,,,0.00,WUHU21623XXSP,2013-11-07 17:44:00,
2013-11-07 12:49:00,46.6,33.8,30.02,WSW,257,4.1,6.7,61,0.00,,,0.00,WUHU21623XXSP,2013-11-07 17:49:00,
2013-11-07 12:54:00,46.6,33.8,30.02,NW,319,1.8,8.5,61,0.00,,,0.00,WUHU21623XXSP,2013-11-07 17:54:00,
2013-11-07 12:58:00,46.6,33.4,30.02,South,180,7.4,8.5,60,0.00,,,0.00,WUHU21623XXSP,2013-11-07 17:58:00,
2013-11-07 13:03:00,46.6,33.4,30.01,South,180,5.1,7.6,60,0.00,,,0.00,WUHU21623XXSP,2013-11-07 18:03:00,
2013-11-07 13:08:00,46.2,33.5,30.01,NW,305,3.8,14.8,61,0.00,,,0.00,WUHU21623XXSP,2013-11-07 18:08:00,
2013-11-07 13:13:00,46.2,33.5,30.01,West,278,5.2,15.0,61,0.00,,,0.00,WUHU21623XXSP,2013-11-07 18:13:00,
2013-11-07 13:18:00,46.0,33.7,30.01,West,270,4.7,15.0,62,0.00,,,0.00,WUHU21623XXSP,2013-11-07 18:18:00,
2013-11-07 13:23:00,45.9,33.5,30.01,SW,225,5.1,13.0,62,0.00,,,0.00,WUHU21623XXSP,2013-11-07 18:23:00,
2013-11-07 13:28:00,45.3,33.0,30.01,SSW,202,8.5,13.0,62,0.00,,,0.00,WUHU21623XXSP,2013-11-07 18:28:00,
2013-11-07 13:33:00,45.1,33.3,30.01,SW,225,8.9,11.4,64,0.00,,,0.00,WUHU21623XXSP,2013-11-07 18:33:00,
2013-11-07 13:38:00,44.8,33.3,30.01,WSW,247,4.5,12.5,64,0.00,,,0.00,WUHU21623XXSP,2013-11-07 18:38:00,
2013-11-07 13:40:00,44.8,33.5,30.01,NNE,23,0.0,0.0,64,0.00,,,0.00,WUHU21623XXSP,2013-11-07 18:40:00,
2013-11-07 13:43:00,44.4,33.0,30.00,WNW,292,4.3,12.5,64,0.00,,,0.00,WUHU21623XXSP,2013-11-07 18:43:00,
2013-11-07 13:48:00,44.2,32.8,30.00,NW,315,8.1,8.7,64,0.00,,,0.00,WUHU21623XXSP,2013-11-07 18:48:00,
2013-11-07 13:53:00,43.9,32.8,30.00,North,0,3.6,8.1,65,0.00,,,0.00,WUHU21623XXSP,2013-11-07 18:53:00,
2013-11-07 13:58:00,43.7,33.2,30.00,NNW,337,3.6,10.7,66,0.00,,,0.00,WUHU21623XXSP,2013-11-07 18:58:00,
2013-11-07 14:03:00,43.7,32.3,30.01,WNW,300,3.6,10.7,64,0.00,,,0.00,WUHU21623XXSP,2013-11-07 19:03:00,
2013-11-07 14:08:00,43.5,32.5,30.01,NW,320,1.9,8.7,65,0.00,,,0.00,WUHU21623XXSP,2013-11-07 19:08:00,
2013-11-07 14:13:00,43.5,32.1,30.00,NW,315,3.6,6.7,64,0.00,,,0.00,WUHU21623XXSP,2013-11-07 19:13:00,
2013-11-07 14:18:00,43.5,32.1,30.00,West,259,3.3,6.7,64,0.00,,,0.00,WUHU21623XXSP,2013-11-07 19:18:00,
2013-11-07 14:23:00,43.5,32.1,30.00,WNW,292,3.8,5.8,64,0.00,,,0.00,WUHU21623XXSP,2013-11-07 19:23:00,
2013-11-07 14:28:00,43.5,32.1,30.00,SW,228,4.9,13.0,64,0.00,,,0.00,WUHU21623XXSP,2013-11-07 19:28:00,
2013-11-07 14:33:00,43.5,32.1,30.00,WSW,247,3.4,13.0,64,0.00,,,0.00,WUHU21623XXSP,2013-11-07 19:33:00,
2013-11-07 14:38:00,43.3,31.9,30.00,WNW,285,1.9,11.9,64,0.00,,,0.00,WUHU21623XXSP,2013-11-07 19:38:00,
2013-11-07 14:40:00,43.3,32.0,30.00,NNE,23,2.7,2.7,64,0.00,,,0.00,WUHU21623XXSP,2013-11-07 19:40:00,
2013-11-07 14:43:00,43.2,31.8,30.00,NNW,337,4.0,6.9,64,0.00,,,0.00,WUHU21623XXSP,2013-11-07 19:43:00,
2013-11-07 14:48:00,43.2,32.2,30.00,WSW,239,1.6,8.7,65,0.00,,,0.00,WUHU21623XXSP,2013-11-07 19:48:00,
2013-11-07 14:53:00,43.2,32.2,30.00,WSW,247,4.5,8.7,65,0.00,,,0.00,WUHU21623XXSP,2013-11-07 19:53:00,
2013-11-07 14:58:00,43.0,32.0,29.99,NW,315,4.7,6.7,65,0.00,,,0.00,WUHU21623XXSP,2013-11-07 19:58:00,
2013-11-07 15:03:00,43.0,31.6,30.00,WNW,292,2.5,8.3,64,0.00,,,0.00,WUHU21623XXSP,2013-11-07 20:03:00,
2013-11-07 15:08:00,43.0,31.2,29.99,West,270,2.9,8.3,63,0.00,,,0.00,WUHU21623XXSP,2013-11-07 20:08:00,
2013-11-07 15:13:00,43.0,31.2,29.99,WNW,288,2.6,6.5,63,0.00,,,0.00,WUHU21623XXSP,2013-11-07 20:13:00,
2013-11-07 15:18:00,42.6,30.8,29.99,WNW,292,3.1,6.9,63,0.00,,,0.00,WUHU21623XXSP,2013-11-07 20:18:00,
2013-11-07 15:23:00,42.6,30.8,29.99,West,270,2.5,6.9,63,0.00,,,0.00,WUHU21623XXSP,2013-11-07 20:23:00,
2013-11-07 15:28:00,42.6,30.8,29.99,WSW,254,2.0,4.9,63,0.00,,,0.00,WUHU21623XXSP,2013-11-07 20:28:00,
2013-11-07 15:33:00,42.6,31.2,29.99,West,277,2.3,5.6,64,0.00,,,0.00,WUHU21623XXSP,2013-11-07 20:33:00,
2013-11-07 15:38:00,42.6,30.8,29.99,West,270,3.8,5.6,63,0.00,,,0.00,WUHU21623XXSP,2013-11-07 20:38:00,
2013-11-07 15:40:00,42.6,31.0,29.99,NNW,338,3.6,3.6,63,0.00,,,0.00,WUHU21623XXSP,2013-11-07 20:40:00,
2013-11-07 15:43:00,42.6,30.5,29.98,WNW,299,3.8,5.4,63,0.00,,,0.00,WUHU21623XXSP,2013-11-07 20:43:00,
2013-11-07 15:48:00,42.4,30.7,29.99,NW,309,2.9,5.6,63,0.00,,,0.00,WUHU21623XXSP,2013-11-07 20:48:00,
2013-11-07 15:53:00,42.4,30.7,29.98,North,0,1.8,5.6,63,0.00,,,0.00,WUHU21623XXSP,2013-11-07 20:53:00,
2013-11-07 15:58:00,42.4,30.7,29.98,WNW,282,1.4,5.6,63,0.00,,,0.00,WUHU21623XXSP,2013-11-07 20:58:00,
2013-11-07 16:03:00,42.4,30.7,29.98,North,0,2.7,5.6,63,0.00,,,0.00,WUHU21623XXSP,2013-11-07 21:03:00,
2013-11-07 16:08:00,42.4,30.3,29.98,West,275,3.0,5.6,62,0.00,,,0.00,WUHU21623XXSP,2013-11-07 21:08:00,
2013-11-07 16:13:00,42.3,30.5,29.98,NW,315,3.8,5.6,63,0.00,,,0.00,WUHU21623XXSP,2013-11-07 21:13:00,
2013-11-07 16:18:00,42.1,30.3,29.98,WNW,296,3.3,4.7,63,0.00,,,0.00,WUHU21623XXSP,2013-11-07 21:18:00,
2013-11-07 16:23:00,42.1,30.3,29.98,NNW,337,3.8,4.3,63,0.00,,,0.00,WUHU21623XXSP,2013-11-07 21:23:00,
2013-11-07 16:28:00,42.1,30.3,29.98,NW,311,2.5,5.1,63,0.00,,,0.00,WUHU21623XXSP,2013-11-07 21:28:00,
2013-11-07 16:33:00,41.9,30.6,29.97,NW,315,4.7,5.8,64,0.00,,,0.00,WUHU21623XXSP,2013-11-07 21:33:00,
2013-11-07 16:38:00,41.9,30.6,29.97,WNW,299,2.1,5.8,64,0.00,,,0.00,WUHU21623XXSP,2013-11-07 21:38:00,
2013-11-07 16:40:00,41.9,30.7,29.97,WSW,248,2.5,2.5,64,0.00,,,0.00,WUHU21623XXSP,2013-11-07 21:40:00,
2013-11-07 16:43:00,41.9,31.0,29.97,West,264,2.1,5.6,65,0.00,,,0.00,WUHU21623XXSP,2013-11-07 21:43:00,
2013-11-07 16:48:00,41.9,31.0,29.97,West,270,3.1,9.4,65,0.00,,,0.00,WUHU21623XXSP,2013-11-07 21:48:00,
2013-11-07 16:53:00,41.7,30.8,29.97,NNW,337,1.8,9.4,65,0.00,,,0.00,WUHU21623XXSP,2013-11-07 21:53:00,
2013-11-07 16:58:00,41.7,30.8,29.97,NNW,344,2.1,6.5,65,0.00,,,0.00,WUHU21623XXSP,2013-11-07 21:58:00,
2013-11-07 17:03:00,41.7,31.2,29.97,NW,326,1.2,6.3,66,0.00,,,0.00,WUHU21623XXSP,2013-11-07 22:03:00,
2013-11-07 17:08:00,41.7,31.6,29.97,NNW,337,2.2,9.2,67,0.00,,,0.00,WUHU21623XXSP,2013-11-07 22:08:00,
2013-11-07 17:13:00,41.7,31.6,29.97,NW,315,0.0,9.2,67,0.00,,,0.00,WUHU21623XXSP,2013-11-07 22:13:00,
2013-11-07 17:18:00,41.7,31.9,29.97,WNW,300,2.6,4.3,68,0.00,,,0.00,WUHU21623XXSP,2013-11-07 22:18:00,
2013-11-07 17:23:00,41.5,31.8,29.97,NW,325,1.0,4.3,68,0.00,,,0.00,WUHU21623XXSP,2013-11-07 22:23:00,
2013-11-07 17:28:00,41.5,31.8,29.96,West,270,2.5,5.8,68,0.00,,,0.00,WUHU21623XXSP,2013-11-07 22:28:00,
2013-11-07 17:33:00,41.5,31.8,29.97,SW,225,3.1,5.8,68,0.00,,,0.00,WUHU21623XXSP,2013-11-07 22:33:00,
2013-11-07 17:38:00,41.5,32.1,29.97,West,261,2.2,5.1,69,0.00,,,0.00,WUHU21623XXSP,2013-11-07 22:38:00,
2013-11-07 17:40:00,41.5,32.2,29.97,WNW,293,8.1,8.1,69,0.00,,,0.00,WUHU21623XXSP,2013-11-07 22:40:00,
2013-11-07 17:43:00,41.5,32.1,29.97,WNW,286,2.2,8.1,69,0.00,,,0.00,WUHU21623XXSP,2013-11-07 22:43:00,
2013-11-07 17:48:00,41.5,32.1,29.97,West,276,2.8,8.1,69,0.00,,,0.00,WUHU21623XXSP,2013-11-07 22:48:00,
2013-11-07 17:53:00,41.5,32.1,29.97,WNW,289,1.9,7.8,69,0.00,,,0.00,WUHU21623XXSP,2013-11-07 22:53:00,
2013-11-07 17:58:00,41.5,32.1,29.97,WNW,292,3.8,6.5,69,0.00,,,0.00,WUHU21623XXSP,2013-11-07 22:58:00,
2013-11-07 18:03:00,41.5,31.8,29.98,NW,323,4.6,9.2,68,0.00,,,0.00,WUHU21623XXSP,2013-11-07 23:03:00,
2013-11-07 18:08:00,41.5,32.1,29.98,West,270,2.9,9.2,69,0.00,,,0.00,WUHU21623XXSP,2013-11-07 23:08:00,
2013-11-07 18:13:00,41.5,31.8,29.98,NW,310,4.5,9.2,68,0.00,,,0.00,WUHU21623XXSP,2013-11-07 23:13:00,
2013-11-07 18:18:00,41.5,32.1,29.98,WSW,247,3.4,9.6,69,0.00,,,0.00,WUHU21623XXSP,2013-11-07 23:18:00,
2013-11-07 18:23:00,41.5,32.1,29.98,West,281,4.3,9.6,69,0.00,,,0.00,WUHU21623XXSP,2013-11-07 23:23:00,
2013-11-07 18:28:00,41.5,32.1,29.98,NW,309,2.8,8.3,69,0.00,,,0.00,WUHU21623XXSP,2013-11-07 23:28:00,
2013-11-07 18:33:00,41.5,31.8,29.98,WNW,291,3.9,9.2,68,0.00,,,0.00,WUHU21623XXSP,2013-11-07 23:33:00,
2013-11-07 18:38:00,41.4,31.6,29.99,West,270,4.3,9.6,68,0.00,,,0.00,WUHU21623XXSP,2013-11-07 23:38:00,
2013-11-07 18:40:00,41.4,31.7,29.98,NW,315,9.6,9.6,68,0.00,,,0.00,WUHU21623XXSP,2013-11-07 23:40:00,
2013-11-07 18:43:00,41.2,31.4,29.98,WNW,292,6.3,9.6,68,0.00,,,0.00,WUHU21623XXSP,2013-11-07 23:43:00,
2013-11-07 18:48:00,41.2,31.8,29.99,WSW,247,3.1,11.0,69,0.00,,,0.00,WUHU21623XXSP,2013-11-07 23:48:00,
2013-11-07 18:53:00,41.0,31.6,29.99,NW,309,4.4,11.2,69,0.00,,,0.00,WUHU21623XXSP,2013-11-07 23:53:00,
2013-11-07 18:58:00,40.8,31.8,29.99,West,280,3.5,11.2,70,0.00,,,0.00,WUHU21623XXSP,2013-11-07 23:58:00,
2013-11-07 19:03:00,40.8,31.8,29.99,WNW,299,4.4,9.2,70,0.00,,,0.00,WUHU21623XXSP,2013-11-08 00:03:00,
2013-11-07 19:08:00,40.8,31.8,29.99,NW,315,4.3,9.2,70,0.00,,,0.00,WUHU21623XXSP,2013-11-08 00:08:00,
2013-11-07 19:13:00,40.8,31.8,30.00,WNW,301,3.9,7.4,70,0.00,,,0.00,WUHU21623XXSP,2013-11-08 00:13:00,
2013-11-07 19:18:00,40.8,31.8,29.99,NW,315,5.4,7.4,70,0.00,,,0.00,WUHU21623XXSP,2013-11-08 00:18:00,
2013-11-07 19:23:00,40.8,31.4,29.99,WNW,297,1.5,6.9,69,0.00,,,0.00,WUHU21623XXSP,2013-11-08 00:23:00,
2013-11-07 19:28:00,40.8,31.4,29.99,NW,315,3.1,6.9,69,0.00,,,0.00,WUHU21623XXSP,2013-11-08 00:28:00,
2013-11-07 19:33:00,40.8,31.4,29.99,WNW,300,2.8,6.5,69,0.00,,,0.00,WUHU21623XXSP,2013-11-08 00:33:00,
2013-11-07 19:38:00,40.6,31.3,29.99,WNW,287,2.1,6.5,69,0.00,,,0.00,WUHU21623XXSP,2013-11-08 00:38:00,
2013-11-07 19:40:00,40.6,31.3,29.99,West,270,0.0,0.0,69,0.00,,,0.00,WUHU21623XXSP,2013-11-08 00:40:00,
2013-11-07 19:43:00,40.5,31.1,29.99,WNW,301,2.6,6.0,69,0.00,,,0.00,WUHU21623XXSP,2013-11-08 00:43:00,
2013-11-07 19:48:00,40.3,30.9,29.99,NW,315,1.6,4.7,69,0.00,,,0.00,WUHU21623XXSP,2013-11-08 00:48:00,
2013-11-07 19:53:00,40.3,30.9,29.99,WSW,247,2.5,5.8,69,0.00,,,0.00,WUHU21623XXSP,2013-11-08 00:53:00,
2013-11-07 19:58:00,40.3,30.9,29.99,West,270,4.5,5.8,69,0.00,,,0.00,WUHU21623XXSP,2013-11-08 00:58:00,
2013-11-07 20:03:00,40.1,30.7,30.00,WSW,247,9.6,9.6,69,0.00,,,0.00,WUHU21623XXSP,2013-11-08 01:03:00,
2013-11-07 20:08:00,40.1,30.3,29.99,North,0,3.1,9.6,68,0.00,,,0.00,WUHU21623XXSP,2013-11-08 01:08:00,
2013-11-07 20:13:00,40.1,30.3,30.00,NW,315,3.2,7.4,68,0.00,,,0.00,WUHU21623XXSP,2013-11-08 01:13:00,
2013-11-07 20:18:00,40.1,30.3,29.99,SW,225,3.4,8.7,68,0.00,,,0.00,WUHU21623XXSP,2013-11-08 01:18:00,
2013-11-07 20:23:00,40.1,30.7,29.99,WSW,255,2.2,8.7,69,0.00,,,0.00,WUHU21623XXSP,2013-11-08 01:23:00,
2013-11-07 20:28:00,40.1,30.7,29.99,West,267,1.0,7.4,69,0.00,,,0.00,WUHU21623XXSP,2013-11-08 01:28:00,
2013-11-07 20:33:00,40.1,30.7,29.99,NW,315,2.5,3.6,69,0.00,,,0.00,WUHU21623XXSP,2013-11-08 01:33:00,
2013-11-07 20:38:00,39.9,30.5,29.99,NNW,337,1.8,6.3,69,0.00,,,0.00,WUHU21623XXSP,2013-11-08 01:38:00,
2013-11-07 20:40:00,39.9,30.3,29.99,West,270,3.4,3.4,68,0.00,,,0.00,WUHU21623XXSP,2013-11-08 01:40:00,
2013-11-07 20:43:00,39.9,30.2,29.99,NW,315,5.6,6.3,68,0.00,,,0.00,WUHU21623XXSP,2013-11-08 01:43:00,
2013-11-07 20:48:00,39.9,30.2,30.00,West,281,2.3,5.6,68,0.00,,,0.00,WUHU21623XXSP,2013-11-08 01:48:00,
2013-11-07 20:53:00,40.1,30.7,30.00,WNW,292,2.7,4.0,69,0.00,,,0.00,WUHU21623XXSP,2013-11-08 01:53:00,
2013-11-07 20:58:00,40.1,30.7,29.99,NW,304,3.8,6.7,69,0.00,,,0.00,WUHU21623XXSP,2013-11-08 01:58:00,
2013-11-07 21:03:00,40.3,30.9,29.99,WNW,299,4.2,7.6,69,0.00,,,0.00,WUHU21623XXSP,2013-11-08 02:03:00,
2013-11-07 21:08:00,40.5,31.1,29.99,NNW,337,2.2,7.6,69,0.00,,,0.00,WUHU21623XXSP,2013-11-08 02:08:00,
2013-11-07 21:13:00,40.5,30.7,29.99,WNW,302,4.7,10.5,68,0.00,,,0.00,WUHU21623XXSP,2013-11-08 02:13:00,
2013-11-07 21:18:00,40.5,30.7,30.00,WNW,296,2.0,10.5,68,0.00,,,0.00,WUHU21623XXSP,2013-11-08 02:18:00,
2013-11-07 21:23:00,40.6,30.9,29.99,North,0,3.8,7.6,68,0.00,,,0.00,WUHU21623XXSP,2013-11-08 02:23:00,
2013-11-07 21:28:00,40.6,30.9,29.99,West,270,3.1,7.8,68,0.00,,,0.00,WUHU21623XXSP,2013-11-08 02:28:00,
2013-11-07 21:33:00,40.6,30.9,29.99,WNW,287,4.6,10.3,68,0.00,,,0.00,WUHU21623XXSP,2013-11-08 02:33:00,
2013-11-07 21:38:00,40.6,30.9,30.00,WSW,247,3.8,10.3,68,0.00,,,0.00,WUHU21623XXSP,2013-11-08 02:38:00,
2013-11-07 21:40:00,40.6,30.9,30.00,NW,315,3.1,3.1,68,0.00,,,0.00,WUHU21623XXSP,2013-11-08 02:40:00,
2013-11-07 21:43:00,40.6,30.9,30.00,SW,225,3.8,8.9,68,0.00,,,0.00,WUHU21623XXSP,2013-11-08 02:43:00,
2013-11-07 21:48:00,40.6,30.9,29.99,West,278,2.6,6.9,68,0.00,,,0.00,WUHU21623XXSP,2013-11-08 02:48:00,
2013-11-07 21:53:00,40.6,30.9,30.00,WSW,247,5.6,6.9,68,0.00,,,0.00,WUHU21623XXSP,2013-11-08 02:53:00,
2013-11-07 21:58:00,40.6,31.3,30.00,WNW,283,5.1,11.2,69,0.00,,,0.00,WUHU21623XXSP,2013-11-08 02:58:00,
2013-11-07 22:03:00,40.6,30.9,30.00,WNW,297,5.0,11.2,68,0.00,,,0.00,WUHU21623XXSP,2013-11-08 03:03:00,
2013-11-07 22:08:00,40.6,31.3,30.00,WNW,292,5.1,9.2,69,0.00,,,0.00,WUHU21623XXSP,2013-11-08 03:08:00,
2013-11-07 22:13:00,40.6,31.6,30.00,WNW,291,4.7,9.2,70,0.00,,,0.00,WUHU21623XXSP,2013-11-08 03:13:00,
2013-11-07 22:18:00,40.6,31.6,30.00,West,270,3.2,9.2,70,0.00,,,0.00,WUHU21623XXSP,2013-11-08 03:18:00,
2013-11-07 22:23:00,40.6,31.6,30.00,NNW,337,5.8,7.8,70,0.00,,,0.00,WUHU21623XXSP,2013-11-08 03:23:00,
2013-11-07 22:28:00,40.6,32.0,30.00,West,267,2.8,10.3,71,0.00,,,0.00,WUHU21623XXSP,2013-11-08 03:28:00,
2013-11-07 22:33:00,40.6,32.0,30.00,NW,308,2.7,10.3,71,0.00,,,0.00,WUHU21623XXSP,2013-11-08 03:33:00,
2013-11-07 22:38:00,40.6,32.0,30.00,WNW,286,3.7,8.5,71,0.00,,,0.00,WUHU21623XXSP,2013-11-08 03:38:00,
2013-11-07 22:40:00,40.6,32.0,30.00,NNW,338,2.9,2.9,71,0.00,,,0.00,WUHU21623XXSP,2013-11-08 03:40:00,
2013-11-07 22:43:00,40.8,32.1,30.00,West,270,3.6,8.3,71,0.00,,,0.00,WUHU21623XXSP,2013-11-08 03:43:00,
2013-11-07 22:48:00,40.6,32.0,30.00,WNW,292,3.8,5.8,71,0.00,,,0.00,WUHU21623XXSP,2013-11-08 03:48:00,
2013-11-07 22:53:00,40.6,32.0,30.00,WNW,284,4.2,7.6,71,0.00,,,0.00,WUHU21623XXSP,2013-11-08 03:53:00,
2013-11-07 22:58:00,40.8,32.1,30.00,NNW,331,2.0,7.6,71,0.00,,,0.00,WUHU21623XXSP,2013-11-08 03:58:00,
2013-11-07 23:03:00,40.8,31.8,30.00,NW,315,7.4,8.5,70,0.00,,,0.00,WUHU21623XXSP,2013-11-08 04:03:00,
2013-11-07 23:08:00,40.8,31.8,30.00,NNW,336,4.3,8.5,70,0.00,,,0.00,WUHU21623XXSP,2013-11-08 04:08:00,
2013-11-07 23:13:00,40.8,31.4,30.00,WNW,288,4.1,8.9,69,0.00,,,0.00,WUHU21623XXSP,2013-11-08 04:13:00,
2013-11-07 23:18:00,40.8,30.7,30.00,WNW,286,3.7,11.9,67,0.00,,,0.00,WUHU21623XXSP,2013-11-08 04:18:00,
2013-11-07 23:23:00,40.8,31.1,30.00,WNW,296,1.6,11.9,68,0.00,,,0.00,WUHU21623XXSP,2013-11-08 04:23:00,
2013-11-07 23:28:00,40.6,30.9,30.00,NW,315,4.3,6.9,68,0.00,,,0.00,WUHU21623XXSP,2013-11-08 04:28:00,
2013-11-07 23:33:00,40.6,30.9,30.00,WSW,247,4.0,7.6,68,0.00,,,0.00,WUHU21623XXSP,2013-11-08 04:33:00,
2013-11-07 23:38:00,40.6,30.9,30.00,NW,315,3.6,7.6,68,0.00,,,0.00,WUHU21623XXSP,2013-11-08 04:38:00,
2013-11-07 23:40:00,40.6,30.9,29.99,WSW,248,6.9,6.9,68,0.00,,,0.00,WUHU21623XXSP,2013-11-08 04:40:00,
2013-11-07 23:43:00,40.6,30.9,29.99,WNW,295,3.6,7.8,68,0.00,,,0.00,WUHU21623XXSP,2013-11-08 04:43:00,
2013-11-07 23:48:00,40.6,30.9,29.99,West,264,4.2,9.6,68,0.00,,,0.00,WUHU21623XXSP,2013-11-08 04:48:00,
2013-11-07 23:53:00,40.6,30.9,29.99,NW,309,1.7,9.6,68,0.00,,,0.00,WUHU21623XXSP,2013-11-08 04:53:00,
2013-11-07 23:58:00,40.6,30.9,29.99,WNW,287,4.0,6.5,68,0.00,,,0.00,WUHU21623XXSP,2013-11-08 04:58:00,